カタログに戻る

ATLAS H R/B

運用中LEO
NORAD 16592·ROCKET BODY·🇺🇸 United States

打ち上げ Feb 9, 1986 から Vandenberg Space Force Base

Loading…

次のパス (今後24時間)

TLE

最新Source: Space-Track

元期: Sep 14, 2026, 13:30 UTC

1 16592U 86014B   26257.56284425  .00000652  00000-0  58013-3 0  9993
2 16592  63.3405 313.8365 0290272 137.8806 224.4945 13.74712724372538

AllMySatでATLAS H R/Bをリアルタイム追跡

Download on the App Store